Volver al catálogo

THORAD AGENA D DEB

ActivoPO
NORAD 14466·DEBRIS·🇺🇸 United States

Lanzado Apr 8, 1970 desde Vandenberg Space Force Base

Loading…

Próximos Pases (próximas 24 horas)

TLE

ActualizadoSource: Space-Track

Época: Sep 14, 2026, 07:05 UTC

1 14466U 70025NS  26257.29539746  .00004103  00000-0  84059-3 0  9999
2 14466  99.9703 106.4120 0044081   7.5570 352.6279 14.60866798325420

Sigue THORAD AGENA D DEB en tiempo real con AllMySat

Download on the App Store